Other Public Products
Issued by NWS Grand Forks, ND

Home | Current Version | Previous Version | Text Only | Print | Product List | Glossary Off
Versions: 1 2 3 4 5 6 7 8 9 10 11 12 13 14 15 16 17 18 19 20 21 22 23 24 25 26 27 28 29 30 31 32 33 34 35 36 37 38 39 40 41 42 43 44 45 46 47 48 49 50

000
FPUS83 KFGF 120731
OPUFGF
PRAIRIE TO PINES WEATHER ROUNDUP
NATIONAL WEATHER SERVICE EASTERN NORTH DAKOTA/GRAND FORKS ND
100 AM CST TUE DEC 12 2017

 **SATELLITE DATA USED TO AUGMENT SKY COVER AT AUTOMATED STATIONS**
 *****  WEATHER ACROSS EASTERN NORTH DAKOTA  *****

CITY           SKY/WX    TMP DP  RH WIND       PRES   REMARKS
GRAND FORKS    CLOUDY     8   6  92 SW8       30.27F WCI  -4
GRND FORKS AFB CLOUDY    12   8  82 SW7       30.27F WCI   2
GRND FORKS NWS   N/A      9 N/A N/A W3          N/A
BUXTON           N/A      7   6  93 SW6         N/A  WCI  -3
DEVILS LAKE    CLOUDY    20  17  88 SW9       30.22F WCI   9
FARGO          FAIR       4   0  83 SW7       30.31F WCI  -8
WAHPETON ARPT    N/A      5   1  85 W7        30.33S WCI  -7
$$

 *****  WEATHER ACROSS CENTRAL AND WESTERN NORTH DAKOTA  *****

CITY           SKY/WX    TMP DP  RH WIND       PRES   REMARKS
JAMESTOWN      MOCLDY    14  12  92 SW3       30.25F
BISMARCK       CLOUDY    25  23  92 CALM      30.29F
MINOT          FAIR      29  26  89 SW9       30.20F WCI  20
MINOT AFB      FAIR      29  26  87 SW10      30.18F WCI  20
GARRISON         N/A     25  24  96 W8        30.25F WCI  16
WILLISTON        N/A    N/A N/A N/A MISG      30.25F
DICKINSON      FAIR      26  24  92 W10       30.25F WCI  16
HETTINGER      FAIR      21  19  92 W6        30.31F WCI  13
$$

 *****  OTHER OBSERVATIONS NORTHEAST NORTH DAKOTA  *****

CITY           SKY/WX    TMP DP  RH WIND       PRES   REMARKS
WALHALLA       FAIR      12  14 100 CALM      30.22F
LANGDON        CLOUDY    19  19 100 SW8       30.17F WCI   9
CAVALIER       PTSUNNY   12   9  85 S6        30.23F WCI   3
GRAFTON        CLOUDY    12  10  92 S6        30.27F WCI   3
CANDO          CLOUDY    21  21 100 SW7       30.20F WCI  13
FORT TOTTEN      N/A     18  15  87 SW3       29.95S
ROLLA          CLOUDY    21  21 100 SW8       30.15F WCI  12
RUGBY          CLOUDY    25  23  93 SW7       30.19F WCI  17
 ***** THE ABOVE OBSERVATIONS ARE NON NWS ARE NOT QUALITY
        CONTROLLED AND MAY MIS-REPORT RAIN FOR SNOW...
$$

 *****  OTHER OBSERVATIONS SOUTHEAST NORTH DAKOTA *****

CITY           SKY/WX    TMP DP  RH WIND       PRES   REMARKS
COOPERSTOWN    PTSUNNY   10   9  92 SW6       30.25F WCI   1
VALLEY CITY    PTSUNNY    9   9 100 CALM      30.28F
OAKES            N/A     12  12 100 SW7       30.29F WCI   2
GWINNER          N/A     12  10  92 SW9       30.30F WCI   0
SHEYENNE NWR     N/A      5   3  90 CALM      29.95S
BUFFALO          N/A     -3   8 100 SE6         N/A  WCI -15
WYNDMERE       NOT AVBL
 ***** THE ABOVE OBSERVATIONS ARE NON NWS ARE NOT QUALITY
       CONTROLLED AND MAY MIS-REPORT RAIN FOR SNOW...
$$

  *****  WEATHER ACROSS NORTHERN MINNESOTA  *****

CITY           SKY/WX    TMP DP  RH WIND       PRES   REMARKS
FLAG ISLAND    FAIR       0  -4  85 NW6       30.20F WCI -12
WARROAD        FAIR      -2  -6  84 SW3       30.22S
ROSEAU         FAIR       0  -6  78 W3        30.23F
HALLOCK        CLOUDY     9   5  85 S5        30.25F WCI   0
THF RVR FALLS  MOCLDY     0  -4  85 SW3       30.26F
HALSTAD        NOT AVBL
FOSSTON        FLURRIES  -6  -9  84 S3        30.24S
BAUDETTE       FAIR      -1  -5  82 W3        30.19F
WASKISH        FAIR       0  -2  92 W3        30.21S
CROOKSTON      MOCLDY     1  -2  85 S3        30.28F
$$
  *****  WEATHER ACROSS CENTRAL AND WEST MINNESOTA  *****

CITY           SKY/WX    TMP DP  RH WIND       PRES   REMARKS
BEMIDJI        FAIR      -3  -6  87 W5        30.20F WCI -13
PARK RAPIDS    FAIR      -4  -8  83 W7        30.21F WCI -18
WADENA         FAIR       1  -2  85 W3        30.23F
DETROIT LAKES  FAIR       3   1  92 W3        30.25S
MOORHEAD       FAIR       5   1  85 CALM      30.31F
FERGUS FALLS   FAIR       1   0  92 W6        30.33F WCI -10
ELBOW LAKE     FAIR       4   2  90 NW7       30.30S WCI  -8
MORRIS MN      FAIR       7   3  85 W9        30.29F WCI  -7
STAPLES        FAIR       0  -6  78 W5        30.22F WCI -10
WHEATON        FAIR       9   3  78 W5        30.34F WCI   0
$$
  *****  WEATHER ELSEWHERE ACROSS MINNESOTA  *****

CITY           SKY/WX    TMP DP  RH WIND       PRES   REMARKS
DULUTH         FAIR       5   0  79 NW12G18   30.12R WCI -11
INTRNTL FALLS  FAIR      -2  -6  83 W6        30.19S WCI -14
ELY            FAIR       1  -2  85 NW7       30.12S WCI -11
CLOQUET        FAIR       5   0  78 W7        30.15R WCI  -7
BRAINERD       FAIR       5  -1  76 NW7       30.23S WCI  -7
HIBBING        CLOUDY     3  -1  83 N17       30.15F WCI -17
ALEXANDRIA     FAIR       5   1  83 NW7       30.26R WCI  -7
SAINT CLOUD    FAIR       7   3  84 NW7       30.26R WCI  -5
MINNEAPOLIS    FAIR      13   8  81 NW14      30.24R WCI  -2
$$

  *****  WEATHER ACROSS SOUTH DAKOTA  *****

CITY           SKY/WX    TMP DP  RH WIND       PRES   REMARKS
SIOUX FALLS    FAIR      14  12  92 NW6       30.33F WCI   5
BROOKINGS      FAIR      12   9  87 W6        30.31F WCI   3
WATERTOWN      FAIR      11  10  96 W3        30.28F
HURON          FAIR      16  14  92 W6        30.36F WCI   7
SISSETON         N/A     11   7  84 W5        30.32S WCI   3
ABERDEEN       MOCLDY    11   9  92 SW6       30.33F WCI   1
MITCHELL       FAIR      17  14  88 W5        30.38F WCI  10
PIERRE         CLOUDY    29  27  92 W6        30.33F WCI  23
MOBRIDGE       FAIR      20  17  88 CALM      30.29F
RAPID CITY     FAIR      20  14  77 SW3       30.35F
$$

  *****  SOME WEATHER IN NEARBY STATES *****

CITY           SKY/WX    TMP DP  RH WIND       PRES   REMARKS
GLASGOW MT     FAIR      22  19  89 SE5       30.24F WCI  16
GREAT FALLS MT FAIR      41  13  31 S15       30.28F
CHEYENNE WY    FAIR      31  16  54 W13       30.42F WCI  21
SCOTTSBLUFF NE FAIR      25  14  63 N7        30.40F WCI  17
OMAHA NE       FAIR      24  13  62 N16       30.35R WCI  11
DES MOINES IA  FAIR      20  13  74 NW14      30.26R WCI   7
DAVENPORT IA   FAIR      25  17  72 NW17      30.11R WCI  12
CHICAGO IL     FLURRIES  28  15  58 N21G33    29.94R WCI  15
EAU CLAIRE WI  MOCLDY    14   6  70 NW8       30.14S WCI   3
LA CROSSE WI   MOCLDY    19   9  65 NW13      30.15R WCI   6
$$

  *****  SOME NATIONAL WEATHER *****

CITY           SKY/WX    TMP DP  RH WIND       PRES   REMARKS
LA GUARDIA NY  CLOUDY    39  27  62 E7        29.87F
RALEIGH NC     FAIR      41  31  67 SW9       29.84F
ATLANTA GA     FAIR      47  37  68 SW8       29.90F
NEW ORLEANS LA FAIR      51  47  86 SW8       30.10F
OKLAHOMA CITY  FAIR      43  27  53 N21G29    30.35R
ALBUQUERQUE NM FAIR      45   0  15 E20       30.46R
SALT LAKE CITY SNOW      25  24  96 E3        30.60F VSB 1/4
LOS ANGELES CA FAIR      61  21  21 SE6       30.19S
BOISE ID       CLOUDY    25  21  85 NE3       30.67S
SEATTLE WA     FAIR      39  24  55 SE10      30.40F
$$

*** WEATHER ACROSS MANITOBA...SASKATCHEWAN AND ONTARIO ***
                ***ONTARIO***

CITY           SKY/WX    TMP DP  RH WIND       PRES   REMARKS
GERALDTON      CLOUDY    -4  -9  77 N7        30.00S WCI -18
THUNDER BAY    FLURRIES   5  -2  72 NW9       30.12R WCI  -9
SIOUX LOOKOUT  CLEAR     -6  -9  84 NW7       30.11S WCI -20
TORONTO        LGT SNOW  27  23  86 E6        29.58F WCI  20
BIG TROUT LK   FLURRIES  -9 -15  77 W9        30.07F WCI -27
PICKLE LAKE    NOT AVBL
DRYDEN         CLEAR     -6  -9  84 W7        30.12F WCI -20
KENORA         MOCLDY     0  -4  85 W7        30.16F WCI -13
$$
                *** MANITOBA***

CITY           SKY/WX    TMP DP  RH WIND       PRES   REMARKS
BRANDON        FLURRIES  23  21  93 W5        30.12F WCI  17
DAUPHIN        CLOUDY    21  19  93 VRB2      30.09F
ISLAND LAKE    CLEAR    -15 -20  76 VRB2      30.13F
PILOT MOUND      N/A     19  16  86 SW7         N/A  WCI  10
THE PAS        CLOUDY    14  10  85 S9        30.06F WCI   2
THOMPSON       MOCLDY   -11 -15  84 W5        30.08F WCI -23
WINNIPEG       MOCLDY     1   0  92 S7        30.22F WCI -11
LYNN LAKE      CLOUDY     0  -2  92 SE5       29.98F WCI -10
CHURCHILL      CRYSTALS -17 -22  76 W9        30.05F WCI -36
GILLAM         CLEAR    -18 -24  76 W9        30.08F WCI -38
$$
                ***SASKATCHEWAN***

CITY           SKY/WX    TMP DP  RH WIND       PRES   REMARKS
ESTEVAN        PTCLDY    25  23  93 SW10      30.18F WCI  15
KINDERSLEY     CLEAR     27  21  80 SW10      30.10F WCI  17
LLOYDMINSTER   CLEAR     34  25  69 W15       29.99F WCI  24
PRINCE ALBERT  MOCLDY    30  25  80 SW6       30.01F WCI  24
REGINA         MOCLDY    27  23  86 SW9       30.14F WCI  17
YORKTON        CLOUDY    28  25  86 SW10      30.07F WC



USA.gov is the U.S. government's official web portal to all federal, state and local government web resources and services.